When you browse on this site, cookies collect data to enhance your experience and personalize the content and advertising you see.
Visit our Privacy Policy to learn more. By continuing to use the site, you agree to this use of cookies and data.
  • In Hungary
  • List of Countries
  • For 7 days
  • Water Temperature
  • Weather Map
  • News
  • Weather Widgets
  • user-avatar
    Login

    Hourly Weather Snizhne

    Today, 29 March, Sunday

    Time Temperature Precipitation Wind Pressure Humidity
    00:00 +7°C° 0 mm 5 mps 733 mmHg 47%
    01:00 +6°C° 0 mm 5 mps 733 mmHg 47%
    02:00 +6°C° 0 mm 5 mps 733 mmHg 48%
    03:00 +5°C° 0 mm 5 mps 732 mmHg 47%
    04:00 +5°C° 0 mm 5 mps 732 mmHg 48%
    05:00 +3°C° 0 mm 5 mps 732 mmHg 49%
    06:00 +3°C° 0 mm 5 mps 731 mmHg 50%
    07:00 +3°C° 0 mm 6 mps 731 mmHg 49%
    08:00 +4°C° 0 mm 7 mps 731 mmHg 47%
    09:00 +5°C° 0 mm 7 mps 731 mmHg 46%
    10:00 +6°C° 0 mm 7 mps 731 mmHg 44%
    11:00 +9°C° 0 mm 7 mps 731 mmHg 43%
    12:00 +10°C° 0 mm 7 mps 731 mmHg 41%
    13:00 +11°C° 0 mm 7 mps 730 mmHg 40%
    14:00 +12°C° 0 mm 7 mps 730 mmHg 39%
    15:00 +14°C° 0 mm 7 mps 729 mmHg 38%
    16:00 +14°C° 0 mm 5 mps 728 mmHg 41%
    17:00 +13°C° 0 mm 4 mps 728 mmHg 43%
    18:00 +13°C° 0 mm 3 mps 728 mmHg 46%
    19:00 +12°C° 0 mm 3 mps 728 mmHg 49%
    20:00 +11°C° 0 mm 3 mps 728 mmHg 52%
    21:00 +10°C° 0 mm 2 mps 728 mmHg 55%
    22:00 +9°C° 0 mm 2 mps 727 mmHg 56%
    23:00 +9°C° 0 mm 3 mps 727 mmHg 57%

    Tomorrow, 30 March, Monday

    Time Temperature Precipitation Wind Pressure Humidity
    00:00 +8°C° 0 mm 3 mps 727 mmHg 58%
    01:00 +8°C° 0 mm 2 mps 727 mmHg 60%
    02:00 +7°C° 0 mm 2 mps 727 mmHg 61%
    03:00 +7°C° 0 mm 2 mps 727 mmHg 63%
    04:00 +7°C° 0 mm 1 mps 726 mmHg 65%
    05:00 +7°C° 0 mm 1 mps 726 mmHg 67%
    06:00 +7°C° 0 mm 1 mps 726 mmHg 69%
    07:00 +8°C° 0 mm 1 mps 727 mmHg 66%
    08:00 +9°C° 0 mm 1 mps 727 mmHg 64%
    09:00 +10°C° 0 mm 1 mps 727 mmHg 61%
    10:00 +12°C° 0 mm 2 mps 727 mmHg 58%
    11:00 +13°C° 0 mm 2 mps 727 mmHg 54%
    12:00 +14°C° 0 mm 2 mps 727 mmHg 50%
    13:00 +14°C° 0 mm 3 mps 727 mmHg 47%
    14:00 +16°C° 0 mm 3 mps 727 mmHg 44%
    15:00 +17°C° 0 mm 4 mps 727 mmHg 41%
    16:00 +15°C° 0 mm 4 mps 727 mmHg 45%
    17:00 +16°C° 0 mm 3 mps 727 mmHg 48%
    18:00 +14°C° 0 mm 3 mps 727 mmHg 51%
    19:00 +13°C° 0 mm 3 mps 728 mmHg 56%
    20:00 +13°C° 0 mm 2 mps 728 mmHg 61%
    21:00 +12°C° 0 mm 2 mps 729 mmHg 66%
    22:00 +10°C° 0 mm 2 mps 729 mmHg 68%
    23:00 +10°C° 0 mm 2 mps 729 mmHg 70%

    Day after tomorrow, 31 March, Tuesday

    Time Temperature Precipitation Wind Pressure Humidity
    00:00 +9°C° 0 mm 2 mps 729 mmHg 72%
    01:00 +9°C° 0 mm 3 mps 729 mmHg 74%
    02:00 +8°C° 0 mm 3 mps 730 mmHg 75%
    03:00 +8°C° 0 mm 3 mps 730 mmHg 77%
    04:00 +6°C° 0 mm 4 mps 730 mmHg 80%
    05:00 +5°C° 0 mm 4 mps 731 mmHg 82%
    06:00 +5°C° 0 mm 4 mps 731 mmHg 84%
    07:00 +5°C° 0 mm 5 mps 732 mmHg 77%
    08:00 +6°C° 0 mm 5 mps 732 mmHg 69%
    09:00 +6°C° 0 mm 5 mps 733 mmHg 62%
    10:00 +7°C° 0 mm 5 mps 733 mmHg 58%
    11:00 +8°C° 0 mm 5 mps 733 mmHg 53%
    12:00 +9°C° 0 mm 5 mps 734 mmHg 49%
    13:00 +9°C° 0 mm 5 mps 734 mmHg 48%
    14:00 +9°C° 0 mm 5 mps 734 mmHg 46%
    15:00 +9°C° 0 mm 5 mps 734 mmHg 45%
    16:00 +9°C° 0 mm 5 mps 734 mmHg 45%
    17:00 +8°C° 0 mm 5 mps 734 mmHg 46%
    18:00 +7°C° 0 mm 5 mps 734 mmHg 47%
    19:00 +6°C° 0 mm 5 mps 735 mmHg 48%
    20:00 +5°C° 0 mm 4 mps 735 mmHg 50%
    21:00 +3°C° 0 mm 4 mps 736 mmHg 52%
    22:00 +3°C° 0 mm 4 mps 736 mmHg 54%
    23:00 +1°C° 0 mm 4 mps 736 mmHg 55%

    1 April, Wednesday

    Time Temperature Precipitation Wind Pressure Humidity
    00:00 +1°C° 0 mm 4 mps 736 mmHg 57%
    01:00 0°C° 0 mm 4 mps 736 mmHg 59%
    02:00 0°C° 0 mm 4 mps 736 mmHg 61%
    03:00 -1°C° 0 mm 4 mps 737 mmHg 64%
    04:00 -1°C° 0 mm 4 mps 737 mmHg 64%
    05:00 -2°C° 0 mm 4 mps 737 mmHg 64%
    06:00 -2°C° 0 mm 4 mps 737 mmHg 64%
    07:00 -2°C° 0 mm 4 mps 738 mmHg 60%
    08:00 -1°C° 0 mm 4 mps 738 mmHg 56%
    09:00 -1°C° 0 mm 4 mps 738 mmHg 52%
    10:00 0°C° 0 mm 4 mps 738 mmHg 47%
    11:00 +1°C° 0 mm 4 mps 738 mmHg 42%
    12:00 +1°C° 0 mm 4 mps 738 mmHg 37%
    13:00 +3°C° 0 mm 4 mps 738 mmHg 35%
    14:00 +3°C° 0 mm 4 mps 738 mmHg 33%
    15:00 +4°C° 0 mm 4 mps 738 mmHg 32%
    16:00 +3°C° 0 mm 4 mps 738 mmHg 33%
    17:00 +3°C° 0 mm 4 mps 737 mmHg 34%
    18:00 +1°C° 0 mm 4 mps 737 mmHg 36%
    19:00 +1°C° 0 mm 3 mps 738 mmHg 38%
    20:00 +2°C° 0 mm 2 mps 738 mmHg 40%
    21:00 +1°C° 0 mm 2 mps 738 mmHg 42%
    22:00 +2°C° 0 mm 1 mps 738 mmHg 42%
    23:00 +1°C° 0 mm 1 mps 738 mmHg 42%

    2 April, Thursday

    Time Temperature Precipitation Wind Pressure Humidity
    00:00 +1°C° 0 mm 1 mps 738 mmHg 42%
    01:00 0°C° 0 mm 1 mps 738 mmHg 41%
    02:00 -1°C° 0 mm 0 mps 738 mmHg 41%
    03:00 -1°C° 0 mm 0 mps 738 mmHg 40%
    04:00 -1°C° 0 mm 0 mps 738 mmHg 40%
    05:00 -1°C° 0 mm 0 mps 738 mmHg 40%
    06:00 -1°C° 0 mm 0 mps 738 mmHg 40%
    07:00 +1°C° 0 mm 1 mps 738 mmHg 37%
    08:00 +2°C° 0 mm 1 mps 738 mmHg 34%
    09:00 +2°C° 0 mm 2 mps 738 mmHg 31%
    10:00 +4°C° 0 mm 1 mps 738 mmHg 31%
    11:00 +5°C° 0 mm 1 mps 738 mmHg 30%
    12:00 +6°C° 0 mm 1 mps 738 mmHg 30%
    13:00 +7°C° 0 mm 1 mps 737 mmHg 29%
    14:00 +7°C° 0 mm 1 mps 737 mmHg 28%
    15:00 +8°C° 0 mm 1 mps 737 mmHg 28%
    16:00 +8°C° 0 mm 1 mps 737 mmHg 28%
    17:00 +8°C° 0 mm 1 mps 736 mmHg 29%
    18:00 +7°C° 0 mm 1 mps 736 mmHg 29%
    19:00 +6°C° 0 mm 1 mps 736 mmHg 32%
    20:00 +5°C° 0 mm 2 mps 736 mmHg 34%
    21:00 +4°C° 0 mm 2 mps 736 mmHg 36%
    22:00 +4°C° 0 mm 1 mps 736 mmHg 36%
    23:00 +4°C° 0 mm 1 mps 736 mmHg 36%

    3 April, Friday

    Time Temperature Precipitation Wind Pressure Humidity
    00:00 +2°C° 0 mm 0 mps 736 mmHg 36%
    01:00 +2°C° 0 mm 0 mps 736 mmHg 36%
    02:00 +2°C° 0 mm 0 mps 736 mmHg 37%
    03:00 +1°C° 0 mm 0 mps 736 mmHg 37%
    04:00 +1°C° 0 mm 0 mps 736 mmHg 38%
    05:00 +2°C° 0 mm 1 mps 736 mmHg 39%
    06:00 +1°C° 0 mm 1 mps 736 mmHg 39%
    07:00 +3°C° 0 mm 1 mps 736 mmHg 37%
    08:00 +5°C° 0 mm 1 mps 736 mmHg 35%
    09:00 +6°C° 0 mm 1 mps 737 mmHg 32%
    10:00 +6°C° 0 mm 2 mps 737 mmHg 32%
    11:00 +7°C° 0 mm 2 mps 737 mmHg 32%
    12:00 +9°C° 0 mm 2 mps 737 mmHg 32%
    13:00 +9°C° 0 mm 2 mps 736 mmHg 33%
    14:00 +10°C° 0 mm 2 mps 736 mmHg 33%
    15:00 +12°C° 0 mm 2 mps 736 mmHg 34%
    16:00 +12°C° 0 mm 2 mps 736 mmHg 36%
    17:00 +10°C° 0 mm 2 mps 735 mmHg 39%
    18:00 +10°C° 0 mm 2 mps 735 mmHg 42%
    19:00 +9°C° 0 mm 2 mps 735 mmHg 48%
    20:00 +8°C° 0 mm 2 mps 736 mmHg 55%
    21:00 +7°C° 0 mm 2 mps 736 mmHg 62%
    22:00 +7°C° 0 mm 2 mps 736 mmHg 65%
    23:00 +8°C° 0 mm 1 mps 736 mmHg 68%
    Show more